[[{"header":{"parameterUnit":"m.s-1","parameterCategory":1,"la1":30.2991,"la2":30.254,"lo1":-89.0895,"lo2":-89.0444,"dy":0.0017,"dx":0.0017,"nx":28,"ny":28,"refTime":"2025-03-21T21:00:00:Z","depth":0,"parameterNumber":2,"parameterNumberName":"U-component_of_WINDS"},"data":[0,0,0,0,0,0,0,0,0,0,0,0,0,0,0,0,0,0,0,0,0,0,0,0,0,0,0,0,0,0,0,0,0,0,0,0,0,0,0,0,0,0,0,0,0,0,0,0,0,0,0,0,0,0,0,0,0,0,4.8853,4.8856,0,4.91,4.9103,4.9106,4.9114,4.9111,4.9108,4.9105,4.9355,4.9364,4.9373,0,0,0,0,0,0,0,0,0,0,0,0,0,4.8383,4.8391,4.8853,4.8856,4.8859,4.91,4.9103,4.9106,4.9114,4.9111,4.9107,4.9104,4.9352,4.9363,4.9374,0,0,0,0,0,0,0,0,0,0,0,0,0,4.8604,4.8394,4.8852,4.8892,4.8898,4.9099,4.9103,4.9107,4.9115,4.9111,4.9106,4.9102,4.9348,4.9362,4.9376,4.9553,0,0,4.9419,4.9425,0,0,0,0,0,0,0,0,4.8591,4.8621,4.8883,4.889,4.8897,4.9072,4.9029,4.9257,4.9116,4.9033,4.9105,4.91,4.9264,4.9285,4.9341,4.9564,4.9575,4.942,4.9429,4.9435,4.9439,0,0,0,0,0,0,0,4.8576,4.861,4.8951,4.8887,4.8895,4.8896,4.8922,4.9072,4.917,4.9039,4.9041,4.907,4.9267,4.9327,4.9347,4.9579,4.942,4.9432,4.9441,4.9447,4.9955,4.996,0,0,0,0,0,0,4.8553,4.8598,4.8943,4.8958,4.873,4.8908,4.8938,4.902,4.9169,4.9187,4.9074,4.9069,4.9305,4.933,4.9356,4.9569,4.9435,4.9448,4.9456,4.995,4.9956,4.9962,0,0,0,0,0,0,4.8543,4.8584,4.8933,4.8778,4.8823,4.8921,4.9013,4.9027,4.9088,4.9195,4.9212,4.9117,4.9303,4.9336,4.9503,4.9578,4.9454,4.9467,4.9944,4.9952,4.9959,4.9999,0,0,0,0,0,0,4.853,4.858,4.865,4.878,4.8831,4.9077,4.9018,4.9035,4.9112,4.9109,4.924,4.9258,4.9302,4.9482,4.9517,4.9595,4.9478,4.9938,4.9948,4.9956,4.9991,5.0007,5.002,0,0,0,0,0,4.8513,4.8652,4.8654,4.8695,4.892,4.9082,4.9111,4.916,4.9118,4.9188,4.9256,4.9253,4.9565,4.9499,4.9538,4.9622,4.9933,4.9945,4.9956,4.9985,5.0004,5.002,0,0,0,0,0,0,4.8528,4.867,4.8673,4.8858,4.8958,4.9083,4.9172,4.9179,4.9292,4.9284,4.9339,4.9368,4.9533,4.9595,4.9519,4.9799,4.9744,4.9763,4.9752,4.9771,4.9785,4.9765,4.949,0,0,0,0,0,4.8553,4.8673,4.8791,4.8943,4.8992,4.9074,4.9146,4.9175,4.928,4.9322,4.9402,4.9503,4.9623,4.9701,4.9818,5.0001,5.0027,5.0078,5.0092,5.0104,5.0119,5.0216,5.0238,4.9999,4.9999,4.9998,0,0,4.8605,4.8697,4.877,4.8948,4.9028,4.915,4.9109,4.924,4.933,4.9342,4.9503,4.9566,4.9682,4.9856,4.9937,4.9913,5.0191,5.0118,5.0126,5.0136,5.023,5.0252,5.0272,5.0006,5.0005,5.0004,0,0,4.8762,4.8846,4.8979,4.9061,4.9183,4.9236,4.9268,4.9392,4.9434,4.9598,4.9608,4.9715,4.9922,5.0002,5.0071,5.0256,5.0256,5.0292,5.0367,5.046,5.0479,5.0496,5.0558,5.058,5.0308,5.0308,5.0308,0,4.8811,4.8996,4.9047,4.9178,4.9254,4.927,4.9404,4.9481,4.9635,4.9686,4.9656,4.9914,4.9994,5.0185,5.023,5.0286,5.0321,5.0276,5.0473,5.049,5.0507,5.0566,5.0589,5.0311,5.0311,5.0311,5.031,0,4.9048,4.9176,4.9269,4.9417,4.9504,4.9636,4.9704,4.9786,4.9807,4.9862,5.0026,5.0123,5.0257,5.0305,5.0328,5.05,5.048,5.0461,5.0406,5.0532,5.0588,5.0612,5.0316,5.0315,5.0314,5.0313,0,0,4.922,4.9393,4.9426,4.9492,4.9628,4.9726,4.9858,4.999,5.0056,5.0162,5.0271,5.0445,5.0427,5.0505,5.0536,5.0619,5.0754,5.059,5.0593,5.0613,5.0944,5.0954,5.0979,5.0756,5.0761,5.0765,5.0932,0,4.9388,4.9622,4.9671,4.9873,4.9989,5.0006,5.0119,5.0213,5.0268,5.0374,5.0434,5.0554,5.0525,5.0571,5.0654,5.072,5.082,5.0709,5.0854,5.0859,5.0821,5.101,5.1022,5.1176,5.0955,5.0959,5.0962,0,4.9615,4.9725,4.9938,5.0055,5.0106,5.0207,5.033,5.0432,5.0538,5.0572,5.0657,5.0679,5.0813,5.0754,5.0937,5.086,5.0923,5.0964,5.0971,5.0984,5.0915,5.1023,5.1226,5.1248,5.0998,5.0995,5.0993,0,4.9713,4.9915,5.0068,5.0124,5.0266,5.0336,5.0398,5.05,5.0575,5.0682,5.0731,5.0852,5.0918,5.1011,5.1063,5.1017,5.1241,5.1188,5.127,5.1268,5.1313,5.1309,5.1525,5.1361,5.136,5.136,5.1359,0,4.9893,5.0022,5.0113,5.0207,5.035,5.0405,5.0545,5.0606,5.0696,5.0799,5.0823,5.0919,5.0985,5.109,5.1133,5.1275,5.1306,5.1334,5.1343,5.133,5.1326,5.1369,5.1358,5.1366,5.1365,5.1364,5.1363,0,5.0026,5.0093,5.026,5.038,5.0413,5.0513,5.0614,5.0704,5.0759,5.089,5.0923,5.1009,5.1134,5.1196,5.1352,5.138,5.154,5.1544,5.1504,5.1506,5.1583,5.1573,5.1831,5.1866,5.1682,5.1684,5.1685,0,5.0135,5.0234,5.0364,5.0435,5.0499,5.0614,5.069,5.0748,5.0826,5.0952,5.1026,5.1152,5.1255,5.1453,5.1527,5.1645,5.165,5.1733,5.1668,5.165,5.1646,5.1638,5.1646,5.1743,5.1744,5.1746,5.1747,0,5.0319,5.0347,5.0456,5.0577,5.0668,5.0766,5.0862,5.0919,5.0991,5.1077,5.1205,5.1285,5.1443,5.1566,5.1689,5.1751,5.176,5.1767,5.1791,5.1777,5.1747,5.176,5.153,5.176,5.1759,5.1758,5.1757,5.1757,5.044,5.0527,5.0632,5.0752,5.0831,5.092,5.1009,5.1075,5.1182,5.1315,5.1343,5.1476,5.1577,5.1743,5.1808,5.1912,5.1894,5.1931,5.1939,5.1946,5.1947,5.1734,5.1936,5.1935,5.1935,5.1935,5.1935,0,5.0621,5.0689,5.08,5.0933,5.1027,5.103,5.1136,5.1213,5.1331,5.1425,5.1526,5.167,5.1789,5.1873,5.1993,5.206,5.2067,5.2089,5.2083,5.2096,5.1959,5.1924,5.2081,5.2081,5.2081,5.2081,5.2081,5.2081,5.0727,5.0873,5.0912,5.1097,5.1163,5.1295,5.1355,5.1436,5.151,5.1671,5.177,5.1824,5.1913,5.2039,5.2147,5.2169,5.221,5.2231,5.2252,5.2122,5.2106,5.2091,5.2058,5.2241,5.2241,5.238,5.2381,5.2382]},{"header":{"parameterUnit":"m.s-1","parameterCategory":1,"la1":30.2991,"la2":30.254,"lo1":-89.0895,"lo2":-89.0444,"dy":0.0017,"dx":0.0017,"nx":28,"ny":28,"refTime":"2025-03-21T21:00:00:Z","depth":0,"parameterNumber":3,"parameterNumberName":"V-component_of_WINDS"},"data":[0,0,0,0,0,0,0,0,0,0,0,0,0,0,0,0,0,0,0,0,0,0,0,0,0,0,0,0,0,0,0,0,0,0,0,0,0,0,0,0,0,0,0,0,0,0,0,0,0,0,0,0,0,0,0,0,0,0,2.4482,2.4483,0,2.4554,2.4555,2.4555,2.4524,2.4523,2.4521,2.4519,2.4591,2.4595,2.4598,0,0,0,0,0,0,0,0,0,0,0,0,0,2.4314,2.4318,2.4482,2.4483,2.4484,2.4554,2.4555,2.4556,2.4525,2.4523,2.452,2.4518,2.459,2.4594,2.4598,0,0,0,0,0,0,0,0,0,0,0,0,0,2.4387,2.4319,2.4482,2.4477,2.4477,2.4553,2.4555,2.4556,2.4525,2.4523,2.452,2.4517,2.4589,2.4594,2.4599,2.4684,0,0,2.4615,2.4618,0,0,0,0,0,0,0,0,2.4383,2.4393,2.4477,2.4477,2.4478,2.4527,2.4522,2.4599,2.4526,2.4507,2.4519,2.4516,2.4572,2.4578,2.4598,2.4687,2.469,2.4616,2.4619,2.4621,2.4623,0,0,0,0,0,0,0,2.4378,2.439,2.451,2.4478,2.4479,2.447,2.4477,2.4536,2.4553,2.4508,2.4506,2.4515,2.4572,2.4593,2.4599,2.4692,2.4616,2.462,2.4624,2.4626,2.4851,2.4854,0,0,0,0,0,0,2.4373,2.4386,2.4508,2.4512,2.4423,2.4475,2.4483,2.4514,2.4552,2.4556,2.4517,2.4513,2.4585,2.4593,2.4602,2.4702,2.4621,2.4626,2.4629,2.4848,2.4852,2.4855,0,0,0,0,0,0,2.437,2.4384,2.4505,2.4448,2.4463,2.448,2.4516,2.4517,2.4538,2.4559,2.4562,2.4536,2.4583,2.4594,2.4663,2.4704,2.4629,2.4633,2.4845,2.4849,2.4853,2.4904,0,0,0,0,0,0,2.4365,2.4383,2.4417,2.445,2.4466,2.4567,2.4518,2.452,2.4547,2.4543,2.4577,2.4581,2.4582,2.4655,2.4668,2.471,2.4638,2.4841,2.4847,2.4852,2.4899,2.491,2.4919,0,0,0,0,0,2.4359,2.4429,2.4419,2.4434,2.4509,2.4569,2.4579,2.458,2.4551,2.4584,2.4597,2.4579,2.4697,2.4663,2.4677,2.4721,2.4839,2.4845,2.4852,2.4895,2.4908,2.4919,0,0,0,0,0,0,2.4401,2.4433,2.4422,2.4505,2.4535,2.4564,2.4606,2.4594,2.4632,2.4626,2.4625,2.4633,2.4704,2.4719,2.468,2.4803,2.4763,2.4773,2.4791,2.4804,2.4813,2.4808,2.4642,0,0,0,0,0,2.442,2.4467,2.4492,2.4562,2.4578,2.4589,2.4616,2.4613,2.4644,2.4656,2.4675,2.4704,2.4747,2.4776,2.4818,2.49,2.4906,2.4937,2.4947,2.4955,2.4964,2.5006,2.5019,2.4876,2.4875,2.4875,0,0,2.4459,2.4482,2.4513,2.4571,2.4594,2.4642,2.46,2.4653,2.4688,2.4664,2.473,2.4745,2.4777,2.4853,2.4887,2.4868,2.5004,2.4963,2.497,2.4974,2.5014,2.5027,2.504,2.488,2.4879,2.4878,0,0,2.4555,2.4578,2.4638,2.4662,2.4696,2.4703,2.4717,2.4748,2.4756,2.4823,2.4805,2.4845,2.4921,2.4944,2.4966,2.5067,2.5052,2.508,2.5132,2.5174,2.5185,2.5195,2.523,2.5242,2.5088,2.5089,2.5089,0,2.46,2.4672,2.4671,2.4724,2.475,2.473,2.4789,2.4811,2.4858,2.4875,2.4852,2.4945,2.4965,2.5045,2.5069,2.5088,2.5103,2.5077,2.5184,2.5194,2.5203,2.5236,2.5249,2.5092,2.5091,2.5091,2.5091,0,2.4724,2.4774,2.4818,2.4863,2.4893,2.495,2.4955,2.4986,2.4979,2.4988,2.5054,2.5078,2.5122,2.5141,2.5136,2.5219,2.5206,2.5184,2.5143,2.522,2.5251,2.5264,2.5096,2.5095,2.5094,2.5094,0,0,2.4852,2.4892,2.4909,2.4927,2.4963,2.5001,2.5054,2.5098,2.5123,2.5155,2.5199,2.5262,2.524,2.5265,2.5262,2.5298,2.5375,2.5271,2.5272,2.5289,2.5465,2.5482,2.5497,2.5364,2.5366,2.5368,2.5462,0,2.495,2.5045,2.5044,2.5132,2.5177,2.5157,2.5203,2.5229,2.5237,2.5275,2.5284,2.5328,2.5298,2.5312,2.5347,2.5358,2.541,2.5351,2.5404,2.5406,2.5397,2.5513,2.5531,2.5619,2.5475,2.5477,2.5478,0,2.5078,2.5113,2.5205,2.5231,2.525,2.5292,2.533,2.5367,2.5395,2.5398,2.5424,2.5414,2.5467,2.5425,2.5497,2.5456,2.5477,2.5486,2.5489,2.5494,2.5447,2.5521,2.5647,2.566,2.5497,2.5496,2.5495,0,2.516,2.523,2.5294,2.531,2.5343,2.5372,2.5387,2.5412,2.5437,2.547,2.5486,2.5524,2.5545,2.5574,2.5575,2.5544,2.5646,2.5605,2.5649,2.565,2.5673,2.5671,2.5804,2.5687,2.5686,2.5686,2.5686,0,2.5269,2.5327,2.5331,2.537,2.5432,2.5429,2.549,2.5502,2.5524,2.5563,2.5548,2.5585,2.5583,2.5621,2.5621,2.5679,2.5689,2.5692,2.5691,2.5694,2.5693,2.5708,2.5701,2.569,2.5689,2.5688,2.5688,0,2.5372,2.5378,2.5445,2.5469,2.5477,2.5521,2.5541,2.5577,2.5583,2.5634,2.5645,2.5654,2.5697,2.57,2.575,2.5749,2.582,2.5813,2.5811,2.581,2.5854,2.5849,2.6,2.6019,2.589,2.5892,2.5893,0,2.5442,2.5486,2.5513,2.5539,2.5555,2.5597,2.5622,2.5619,2.5646,2.5678,2.571,2.5751,2.5784,2.5853,2.5864,2.5901,2.5894,2.5944,2.59,2.5899,2.5894,2.5891,2.5894,2.5953,2.5955,2.5956,2.5957,0,2.5565,2.5565,2.5602,2.564,2.567,2.5699,2.5726,2.5748,2.5748,2.5778,2.5822,2.5847,2.5897,2.5937,2.5973,2.5986,2.5971,2.597,2.5982,2.5985,2.5982,2.5983,2.5834,2.5967,2.5966,2.5965,2.5965,2.5964,2.5653,2.569,2.5714,2.5756,2.5775,2.58,2.5835,2.5844,2.5881,2.5921,2.5917,2.5964,2.5987,2.6034,2.605,2.6086,2.6069,2.6087,2.6091,2.6096,2.61,2.5976,2.6092,2.6092,2.6092,2.6091,2.6091,0,2.5774,2.5789,2.5826,2.5864,2.5896,2.5879,2.5907,2.5934,2.5977,2.6,2.6032,2.608,2.6118,2.6131,2.6167,2.6194,2.6188,2.6203,2.6201,2.6204,2.6114,2.6099,2.6208,2.6208,2.6208,2.6208,2.6208,2.6208,2.5841,2.5902,2.5904,2.5972,2.5986,2.6033,2.605,2.6072,2.609,2.6145,2.6177,2.6184,2.6202,2.624,2.6273,2.6276,2.6289,2.6308,2.6308,2.6223,2.6211,2.62,2.6186,2.6311,2.6311,2.6395,2.6396,2.6397]}]]